TimeCDT,TemperatureF,Dew PointF,Humidity,Sea Level PressureIn,VisibilityMPH,Wind Direction,Wind SpeedMPH,Gust SpeedMPH,PrecipitationIn,Events,Conditions,WindDirDegrees,DateUTC
12:15 AM,70.7,66.6,87,29.94,10.0,SSE,3.5,-,N/A,,Overcast,150,2013-08-06 05:15:00
12:35 AM,70.7,67.1,88,29.94,10.0,Calm,Calm,-,N/A,,Overcast,0,2013-08-06 05:35:00
12:55 AM,70.9,67.1,88,29.94,10.0,South,3.5,-,N/A,,Overcast,170,2013-08-06 05:55:00
1:15 AM,70.7,67.1,88,29.94,10.0,SSE,3.5,-,N/A,,Overcast,150,2013-08-06 06:15:00
1:35 AM,70.7,67.3,89,29.94,10.0,Calm,Calm,-,N/A,,Overcast,0,2013-08-06 06:35:00
1:55 AM,70.7,67.5,89,29.93,10.0,Calm,Calm,-,N/A,,Overcast,0,2013-08-06 06:55:00
2:15 AM,70.7,67.6,90,29.93,10.0,Calm,Calm,-,N/A,,Overcast,0,2013-08-06 07:15:00
2:35 AM,70.7,67.8,91,29.92,10.0,Calm,Calm,-,N/A,,Overcast,0,2013-08-06 07:35:00
2:55 AM,70.7,67.6,90,29.90,10.0,SE,3.5,-,N/A,,Overcast,130,2013-08-06 07:55:00
3:15 AM,70.7,67.6,90,29.89,10.0,Calm,Calm,-,N/A,,Overcast,0,2013-08-06 08:15:00
3:35 AM,70.7,68.0,91,29.89,10.0,Calm,Calm,-,N/A,,Overcast,0,2013-08-06 08:35:00
3:55 AM,70.7,68.0,91,29.90,10.0,SSE,3.5,-,N/A,,Overcast,150,2013-08-06 08:55:00
4:15 AM,70.7,68.0,91,29.90,10.0,Calm,Calm,-,N/A,,Overcast,0,2013-08-06 09:15:00
4:35 AM,70.9,68.0,91,29.90,10.0,Calm,Calm,-,N/A,,Overcast,0,2013-08-06 09:35:00
4:55 AM,70.5,68.0,92,29.90,10.0,SE,3.5,-,N/A,,Overcast,140,2013-08-06 09:55:00
5:15 AM,70.7,68.0,91,29.92,10.0,Calm,Calm,-,N/A,,Overcast,0,2013-08-06 10:15:00
5:35 AM,70.7,68.2,92,29.91,10.0,Calm,Calm,-,N/A,,Overcast,0,2013-08-06 10:35:00
5:55 AM,70.7,68.4,92,29.92,10.0,Calm,Calm,-,N/A,,Overcast,0,2013-08-06 10:55:00
6:15 AM,70.3,68.2,93,29.92,7.0,Calm,Calm,-,N/A,,Overcast,0,2013-08-06 11:15:00
6:35 AM,70.7,68.5,93,29.93,7.0,SSE,3.5,-,N/A,,Overcast,160,2013-08-06 11:35:00
6:55 AM,71.1,68.5,92,29.93,7.0,SSE,3.5,-,N/A,,Overcast,160,2013-08-06 11:55:00
7:15 AM,71.2,68.5,91,29.92,10.0,SE,3.5,-,N/A,,Overcast,130,2013-08-06 12:15:00
7:35 AM,71.6,68.7,91,29.93,10.0,South,4.6,-,N/A,,Overcast,180,2013-08-06 12:35:00
7:55 AM,72.3,68.9,89,29.94,10.0,SSE,5.8,-,N/A,,Overcast,160,2013-08-06 12:55:00
8:15 AM,72.9,68.9,87,29.94,10.0,SSE,3.5,-,N/A,,Overcast,160,2013-08-06 13:15:00
8:35 AM,73.4,68.9,86,29.94,10.0,South,3.5,-,N/A,,Overcast,170,2013-08-06 13:35:00
8:55 AM,73.9,69.1,85,29.94,10.0,South,3.5,-,N/A,,Overcast,180,2013-08-06 13:55:00
9:15 AM,73.8,69.3,86,29.95,10.0,South,3.5,-,N/A,,Overcast,190,2013-08-06 14:15:00
9:35 AM,74.5,69.8,85,29.95,10.0,Calm,Calm,-,N/A,,Overcast,0,2013-08-06 14:35:00
9:55 AM,74.3,70.2,87,29.96,5.0,Calm,Calm,-,N/A,Rain,Rain,0,2013-08-06 14:55:00
10:15 AM,74.3,70.9,89,29.96,7.0,Calm,Calm,-,0.01,Rain,Light Rain,0,2013-08-06 15:15:00
10:35 AM,76.1,71.8,86,29.96,10.0,SSW,3.5,-,0.01,,Mostly Cloudy,200,2013-08-06 15:35:00
10:55 AM,76.8,72.0,85,29.95,10.0,Calm,Calm,-,0.01,,Mostly Cloudy,0,2013-08-06 15:55:00
11:15 AM,79.0,72.3,80,29.94,10.0,Calm,Calm,-,N/A,,Scattered Clouds,0,2013-08-06 16:15:00
11:35 AM,81.1,72.9,76,29.94,10.0,WNW,3.5,-,N/A,,Scattered Clouds,290,2013-08-06 16:35:00
11:55 AM,81.7,71.2,70,29.92,10.0,NNW,3.5,-,N/A,,Clear,340,2013-08-06 16:55:00
12:15 PM,82.4,71.4,69,29.92,10.0,NNW,3.5,-,N/A,,Clear,340,2013-08-06 17:15:00
12:35 PM,81.9,70.5,68,29.92,10.0,Calm,Calm,-,N/A,,Clear,0,2013-08-06 17:35:00
12:55 PM,83.1,71.2,67,29.91,10.0,Calm,Calm,-,N/A,,Clear,0,2013-08-06 17:55:00
1:15 PM,83.1,71.6,68,29.91,10.0,South,3.5,-,N/A,,Clear,180,2013-08-06 18:15:00
1:35 PM,83.7,71.1,66,29.92,10.0,SSW,4.6,-,N/A,,Clear,210,2013-08-06 18:35:00
1:55 PM,83.3,71.6,68,29.91,10.0,South,5.8,-,N/A,,Scattered Clouds,170,2013-08-06 18:55:00
2:15 PM,82.0,72.3,72,29.91,10.0,South,5.8,-,N/A,,Scattered Clouds,170,2013-08-06 19:15:00
2:35 PM,81.7,72.5,74,29.92,10.0,South,4.6,-,N/A,,Clear,180,2013-08-06 19:35:00
2:55 PM,82.6,73.0,73,29.92,10.0,SSE,6.9,-,N/A,,Clear,160,2013-08-06 19:55:00
3:15 PM,84.0,72.7,69,29.91,10.0,South,5.8,-,N/A,,Clear,170,2013-08-06 20:15:00
3:35 PM,84.2,72.7,68,29.91,10.0,SSE,4.6,-,N/A,,Clear,150,2013-08-06 20:35:00
3:55 PM,85.3,72.3,65,29.91,10.0,South,3.5,-,N/A,,Clear,170,2013-08-06 20:55:00
4:15 PM,85.8,72.1,63,29.91,10.0,South,3.5,-,N/A,,Scattered Clouds,190,2013-08-06 21:15:00
4:35 PM,83.7,72.5,69,29.90,10.0,South,6.9,-,N/A,,Mostly Cloudy,170,2013-08-06 21:35:00
4:55 PM,84.0,73.9,72,29.90,10.0,South,9.2,-,N/A,,Mostly Cloudy,170,2013-08-06 21:55:00
5:15 PM,86.2,73.6,66,29.90,10.0,SSE,9.2,-,N/A,,Scattered Clouds,150,2013-08-06 22:15:00
5:35 PM,85.5,72.1,64,29.90,10.0,South,9.2,-,N/A,,Clear,170,2013-08-06 22:35:00
5:55 PM,85.6,70.7,61,29.89,10.0,South,9.2,-,N/A,,Clear,190,2013-08-06 22:55:00
6:15 PM,84.0,71.2,65,29.89,10.0,South,10.4,-,N/A,,Clear,170,2013-08-06 23:15:00
6:35 PM,84.0,69.3,61,29.90,10.0,South,9.2,-,N/A,,Clear,190,2013-08-06 23:35:00
6:55 PM,83.3,68.9,62,29.90,10.0,South,6.9,-,N/A,,Clear,190,2013-08-06 23:55:00
7:15 PM,82.0,70.0,67,29.90,10.0,South,5.8,-,N/A,,Clear,170,2013-08-07 00:15:00
7:35 PM,80.4,72.0,75,29.91,10.0,South,5.8,-,N/A,,Clear,170,2013-08-07 00:35:00
7:55 PM,78.4,71.2,78,29.91,10.0,South,3.5,-,N/A,,Clear,170,2013-08-07 00:55:00
8:15 PM,76.8,71.6,84,29.91,10.0,South,3.5,-,N/A,,Clear,180,2013-08-07 01:15:00
8:35 PM,75.4,71.8,89,29.90,10.0,SSE,5.8,-,N/A,,Clear,160,2013-08-07 01:35:00
8:55 PM,75.4,72.0,89,29.90,10.0,SSE,4.6,-,N/A,,Clear,160,2013-08-07 01:55:00
9:15 PM,74.5,71.6,91,29.91,10.0,Calm,Calm,-,N/A,,Clear,0,2013-08-07 02:15:00
9:35 PM,73.9,71.6,92,29.92,7.0,South,3.5,-,N/A,,Clear,180,2013-08-07 02:35:00
9:55 PM,74.3,72.0,92,29.92,7.0,SSE,4.6,-,N/A,,Clear,160,2013-08-07 02:55:00
10:15 PM,73.2,70.9,92,29.92,5.0,SSE,3.5,-,N/A,,Clear,150,2013-08-07 03:15:00
10:35 PM,72.0,70.0,93,29.92,5.0,Calm,Calm,-,N/A,,Clear,0,2013-08-07 03:35:00
10:55 PM,71.2,69.3,93,29.92,3.0,SE,3.5,-,N/A,,Clear,130,2013-08-07 03:55:00
11:15 PM,72.1,70.7,95,29.92,4.0,SSE,4.6,-,N/A,,Clear,160,2013-08-07 04:15:00
11:35 PM,72.5,70.9,95,29.92,4.0,Calm,Calm,-,N/A,,Clear,0,2013-08-07 04:35:00
11:55 PM,72.3,70.7,95,29.93,3.0,Calm,Calm,-,N/A,,Clear,0,2013-08-07 04:55:00